| time (UTC) | temp F | wind direction | speed MPH | gust MPH | rain 1hr in | rain 24hr in | rain mn in | humidity % | barometer mb |
| 20260504050744 | 46 | 255 | 0.0 | 0.0 | 0.00 | 0.00 | 0.00 | 88 | 1015.6 |
| 20260504050241 | 46 | 269 | 0.0 | 0.0 | 0.00 | 0.00 | 0.00 | 87 | 1015.5 |
| 20260504045739 | 46 | 253 | 0.0 | 0.0 | 0.00 | 0.00 | 0.00 | 87 | 1015.7 |
| 20260504045233 | 46 | 246 | 0.0 | 0.0 | 0.00 | 0.00 | 0.00 | 87 | 1015.6 |
| 20260504044731 | 45 | 247 | 0.0 | 0.0 | 0.00 | 0.00 | 0.00 | 88 | 1015.5 |
| 20260504044228 | 45 | 250 | 0.0 | 0.0 | 0.00 | 0.00 | 0.00 | 87 | 1015.3 |
| 20260504043725 | 45 | 251 | 0.0 | 0.0 | 0.00 | 0.00 | 0.00 | 90 | 1015.5 |
| 20260504043222 | 45 | 280 | 0.0 | 0.0 | 0.00 | 0.00 | 0.00 | 89 | 1015.4 |
| 20260504042720 | 45 | 286 | 0.0 | 0.0 | 0.00 | 0.00 | 0.00 | 89 | 1015.5 |
| 20260504042216 | 45 | 284 | 0.0 | 0.0 | 0.00 | 0.00 | 0.00 | 87 | 1015.6 |
| 20260504041712 | 45 | 242 | 0.0 | 1.0 | 0.00 | 0.00 | 0.00 | 87 | 1015.4 |
| 20260504041208 | 45 | 233 | 0.0 | 1.0 | 0.00 | 0.00 | 0.00 | 87 | 1015.7 |
| 20260504040705 | 45 | 297 | 0.0 | 0.0 | 0.00 | 0.00 | 0.00 | 88 | 1015.3 |
| 20260504040202 | 45 | 249 | 0.0 | 0.0 | 0.00 | 0.00 | 0.00 | 87 | 1015.2 |
| 20260504035658 | 45 | 233 | 1.0 | 1.0 | 0.00 | 0.00 | 0.00 | 87 | 1015.2 |
| 20260504035156 | 45 | 231 | 0.0 | 1.0 | 0.00 | 0.00 | 0.00 | 88 | 1015.4 |
| 20260504034653 | 45 | 261 | 0.0 | 0.0 | 0.00 | 0.00 | 0.00 | 87 | 1015.6 |
| 20260504034150 | 45 | 237 | 0.0 | 1.0 | 0.00 | 0.00 | 0.00 | 88 | 1015.4 |
| 20260504033648 | 45 | 262 | 0.0 | 0.0 | 0.00 | 0.00 | 0.00 | 88 | 1015.5 |
| 20260504033145 | 45 | 249 | 0.0 | 0.0 | 0.00 | 0.00 | 0.00 | 86 | 1015.3 |
| 20260504032641 | 45 | 217 | 0.0 | 1.0 | 0.00 | 0.00 | 0.00 | 87 | 1015.3 |
| 20260504032138 | 45 | 236 | 0.0 | 0.0 | 0.00 | 0.00 | 0.00 | 88 | 1015.3 |
| 20260504031636 | 44 | 249 | 0.0 | 0.0 | 0.00 | 0.00 | 0.00 | 89 | 1015.3 |
| 20260504031132 | 44 | 247 | 0.0 | 0.0 | 0.00 | 0.00 | 0.00 | 89 | 1015.4 |
| 20260504030629 | 44 | 316 | 0.0 | 0.0 | 0.00 | 0.00 | 0.00 | 87 | 1015.4 |
| 20260504030125 | 44 | 237 | 0.0 | 0.0 | 0.00 | 0.00 | 0.00 | 86 | 1015.5 |
| 20260504025622 | 44 | 270 | 0.0 | 0.0 | 0.00 | 0.00 | 0.00 | 86 | 1015.2 |
| 20260504025119 | 44 | 217 | 0.0 | 0.0 | 0.00 | 0.00 | 0.00 | 87 | 1015.4 |
| 20260504024616 | 44 | 260 | 0.0 | 0.0 | 0.00 | 0.00 | 0.00 | 86 | 1015.3 |
| 20260504024113 | 44 | 214 | 1.0 | 1.0 | 0.00 | 0.00 | 0.00 | 86 | 1015.3 |
| 20260504023609 | 44 | 250 | 0.0 | 0.0 | 0.00 | 0.00 | 0.00 | 87 | 1015.2 |
| 20260504023105 | 44 | 325 | 0.0 | 1.0 | 0.00 | 0.00 | 0.00 | 87 | 1015.3 |
| 20260504022602 | 43 | 260 | 0.0 | 0.0 | 0.00 | 0.00 | 0.00 | 86 | 1015.2 |
| 20260504022058 | 43 | 259 | 0.0 | 0.0 | 0.00 | 0.00 | 0.00 | 86 | 1015.1 |
| 20260504021556 | 42 | 248 | 0.0 | 0.0 | 0.00 | 0.00 | 0.00 | 86 | 1015.1 |
| 20260504021052 | 42 | 315 | 0.0 | 0.0 | 0.00 | 0.00 | 0.00 | 86 | 1015.1 |
| 20260504020549 | 42 | 271 | 0.0 | 0.0 | 0.00 | 0.00 | 0.00 | 86 | 1015.2 |
| 20260504020046 | 42 | 229 | 0.0 | 0.0 | 0.00 | 0.00 | 0.00 | 86 | 1015.1 |
| 20260504015542 | 42 | 243 | 0.0 | 0.0 | 0.00 | 0.00 | 0.00 | 84 | 1015.0 |
| 20260504015038 | 42 | 243 | 0.0 | 0.0 | 0.00 | 0.00 | 0.00 | 85 | 1015.0 |
| 20260504014535 | 42 | 245 | 0.0 | 0.0 | 0.00 | 0.00 | 0.00 | 85 | 1014.9 |
| 20260504014032 | 42 | 250 | 0.0 | 0.0 | 0.00 | 0.00 | 0.00 | 84 | 1015.0 |
| 20260504013529 | 42 | 311 | 0.0 | 0.0 | 0.00 | 0.00 | 0.00 | 84 | 1015.1 |
| 20260504013026 | 42 | 257 | 0.0 | 0.0 | 0.00 | 0.00 | 0.00 | 82 | 1014.9 |
| 20260504012524 | 43 | 267 | 0.0 | 0.0 | 0.00 | 0.00 | 0.00 | 81 | 1014.7 |
| 20260504012022 | 43 | 246 | 0.0 | 0.0 | 0.00 | 0.00 | 0.00 | 80 | 1014.7 |
| 20260504011518 | 43 | 227 | 0.0 | 0.0 | 0.00 | 0.00 | 0.00 | 80 | 1014.6 |
| 20260504011014 | 44 | 233 | 0.0 | 0.0 | 0.00 | 0.00 | 0.00 | 81 | 1014.6 |
| 20260504010510 | 45 | 276 | 0.0 | 0.0 | 0.00 | 0.00 | 0.00 | 79 | 1014.7 |
| 20260504010006 | 45 | 241 | 0.0 | 0.0 | 0.00 | 0.00 | 0.00 | 78 | 1014.6 |
| 20260504005503 | 45 | 302 | 0.0 | 0.0 | 0.00 | 0.00 | 0.00 | 77 | 1014.7 |
| 20260504005000 | 45 | 231 | 0.0 | 0.0 | 0.00 | 0.00 | 0.00 | 77 | 1014.5 |
| 20260504004458 | 46 | 251 | 0.0 | 0.0 | 0.00 | 0.00 | 0.00 | 77 | 1014.7 |
| 20260504003955 | 46 | 259 | 0.0 | 0.0 | 0.00 | 0.00 | 0.00 | 76 | 1014.5 |
| 20260504003451 | 47 | 267 | 0.0 | 0.0 | 0.00 | 0.00 | 0.00 | 74 | 1014.2 |
| 20260504002948 | 48 | 227 | 0.0 | 0.0 | 0.00 | 0.00 | 0.00 | 68 | 1014.3 |
| 20260504002445 | 49 | 253 | 0.0 | 0.0 | 0.00 | 0.00 | 0.00 | 68 | 1014.3 |
| 20260504001942 | 49 | 228 | 0.0 | 0.0 | 0.00 | 0.00 | 0.00 | 70 | 1014.2 |
| 20260504001439 | 50 | 248 | 0.0 | 0.0 | 0.00 | 0.00 | 0.00 | 66 | 1014.5 |
| 20260504000936 | 50 | 176 | 0.0 | 0.0 | 0.00 | 0.00 | 0.00 | 66 | 1014.5 |
| 20260504000433 | 51 | 316 | 0.0 | 0.0 | 0.00 | 0.00 | 0.00 | 66 | 1014.3 |
| 20260503235930 | 53 | 326 | 0.0 | 1.0 | 0.00 | 0.00 | 0.00 | 59 | 1014.4 |
| 20260503235428 | 53 | 25 | 0.0 | 0.0 | 0.00 | 0.00 | 0.00 | 58 | 1014.2 |
| 20260503234925 | 54 | 41 | 0.0 | 0.0 | 0.00 | 0.00 | 0.00 | 57 | 1013.9 |
| 20260503234423 | 55 | 15 | 1.0 | 1.0 | 0.00 | 0.00 | 0.00 | 53 | 1014.2 |
| 20260503233921 | 56 | 9 | 1.0 | 1.0 | 0.00 | 0.00 | 0.00 | 52 | 1014.2 |
| 20260503233417 | 59 | 332 | 0.0 | 1.0 | 0.00 | 0.00 | 0.00 | 52 | 1013.9 |
| 20260503232913 | 63 | 294 | 0.0 | 0.0 | 0.00 | 0.00 | 0.00 | 44 | 1013.9 |
| 20260503232410 | 64 | 233 | 1.0 | 1.0 | 0.00 | 0.00 | 0.00 | 34 | 1013.8 |
| 20260503231908 | 64 | 249 | 1.0 | 1.0 | 0.00 | 0.00 | 0.00 | 35 | 1013.8 |
| 20260503231405 | 64 | 256 | 2.0 | 2.0 | 0.00 | 0.00 | 0.00 | 32 | 1013.9 |
| 20260503230902 | 65 | 271 | 3.0 | 3.0 | 0.00 | 0.00 | 0.00 | 32 | 1013.7 |
| 20260503230358 | 65 | 257 | 2.0 | 2.0 | 0.00 | 0.00 | 0.00 | 30 | 1013.8 |
| 20260503225856 | 65 | 294 | 2.0 | 2.0 | 0.00 | 0.00 | 0.00 | 29 | 1013.6 |
| 20260503225351 | 66 | 241 | 2.0 | 2.0 | 0.00 | 0.00 | 0.00 | 30 | 1013.5 |
| 20260503224848 | 66 | 235 | 2.0 | 3.0 | 0.00 | 0.00 | 0.00 | 29 | 1013.8 |
| 20260503224345 | 66 | 241 | 1.0 | 2.0 | 0.00 | 0.00 | 0.00 | 31 | 1013.7 |
| 20260503223843 | 66 | 251 | 0.0 | 1.0 | 0.00 | 0.00 | 0.00 | 29 | 1013.8 |
| 20260503223341 | 67 | 278 | 3.0 | 5.0 | 0.00 | 0.00 | 0.00 | 28 | 1013.7 |
| 20260503222836 | 66 | 230 | 6.0 | 7.0 | 0.00 | 0.00 | 0.00 | 28 | 1013.6 |
| 20260503222335 | 67 | 220 | 3.0 | 3.0 | 0.00 | 0.00 | 0.00 | 27 | 1013.9 |
| 20260503221832 | 67 | 239 | 1.0 | 2.0 | 0.00 | 0.00 | 0.00 | 26 | 1013.9 |
| 20260503221331 | 68 | 265 | 1.0 | 2.0 | 0.00 | 0.00 | 0.00 | 27 | 1013.8 |
| 20260503220826 | 67 | 272 | 0.0 | 1.0 | 0.00 | 0.00 | 0.00 | 27 | 1013.9 |
| 20260503220324 | 67 | 20 | 1.0 | 1.0 | 0.00 | 0.00 | 0.00 | 32 | 1014.2 |
| 20260503215820 | 67 | 304 | 1.0 | 2.0 | 0.00 | 0.00 | 0.00 | 30 | 1014.1 |
| 20260503215318 | 67 | 25 | 5.0 | 6.0 | 0.00 | 0.00 | 0.00 | 27 | 1013.9 |
| 20260503214815 | 67 | 75 | 5.0 | 7.0 | 0.00 | 0.00 | 0.00 | 27 | 1014.1 |
| 20260503214312 | 68 | 14 | 3.0 | 5.0 | 0.00 | 0.00 | 0.00 | 26 | 1014.2 |
| 20260503213810 | 67 | 348 | 0.0 | 1.0 | 0.00 | 0.00 | 0.00 | 28 | 1013.8 |
| 20260503213307 | 66 | 339 | 3.0 | 5.0 | 0.00 | 0.00 | 0.00 | 29 | 1014.2 |
| 20260503212804 | 68 | 236 | 3.0 | 3.0 | 0.00 | 0.00 | 0.00 | 28 | 1013.9 |
| 20260503212304 | 67 | 292 | 3.0 | 3.0 | 0.00 | 0.00 | 0.00 | 28 | 1014.1 |
| 20260503211759 | 68 | 332 | 2.0 | 3.0 | 0.00 | 0.00 | 0.00 | 30 | 1014.1 |
| 20260503211255 | 67 | 37 | 8.0 | 11.0 | 0.00 | 0.00 | 0.00 | 28 | 1014.2 |
| 20260503210755 | 67 | 335 | 3.0 | 3.0 | 0.00 | 0.00 | 0.00 | 30 | 1013.9 |
| 20260503210253 | 66 | 353 | 1.0 | 1.0 | 0.00 | 0.00 | 0.00 | 30 | 1014.2 |
| 20260503205748 | 68 | 307 | 3.0 | 3.0 | 0.00 | 0.00 | 0.00 | 28 | 1013.9 |
| 20260503205245 | 67 | 288 | 0.0 | 1.0 | 0.00 | 0.00 | 0.00 | 32 | 1014.2 |
| 20260503204741 | 66 | 216 | 1.0 | 1.0 | 0.00 | 0.00 | 0.00 | 29 | 1014.3 |
| 20260503204239 | 67 | 216 | 6.0 | 7.0 | 0.00 | 0.00 | 0.00 | 29 | 1014.2 |
| 20260503203736 | 67 | 114 | 1.0 | 2.0 | 0.00 | 0.00 | 0.00 | 31 | 1014.1 |
| 20260503203234 | 67 | 209 | 4.0 | 6.0 | 0.00 | 0.00 | 0.00 | 30 | 1014.4 |
| 20260503202731 | 67 | 225 | 5.0 | 6.0 | 0.00 | 0.00 | 0.00 | 31 | 1014.4 |
| 20260503202229 | 67 | 18 | 2.0 | 2.0 | 0.00 | 0.00 | 0.00 | 31 | 1014.5 |
| 20260503201726 | 66 | 325 | 1.0 | 2.0 | 0.00 | 0.00 | 0.00 | 32 | 1014.5 |
| 20260503201224 | 66 | 75 | 1.0 | 1.0 | 0.00 | 0.00 | 0.00 | 35 | 1014.6 |
| 20260503200720 | 66 | 232 | 5.0 | 6.0 | 0.00 | 0.00 | 0.00 | 31 | 1014.8 |
| 20260503200216 | 66 | 251 | 2.0 | 2.0 | 0.00 | 0.00 | 0.00 | 32 | 1014.9 |
| 20260503195713 | 67 | 5 | 3.0 | 5.0 | 0.00 | 0.00 | 0.00 | 31 | 1015.1 |
| 20260503195210 | 65 | 31 | 5.0 | 6.0 | 0.00 | 0.00 | 0.00 | 31 | 1014.8 |
| 20260503194707 | 65 | 322 | 1.0 | 1.0 | 0.00 | 0.00 | 0.00 | 31 | 1014.8 |
| 20260503194203 | 67 | 22 | 4.0 | 6.0 | 0.00 | 0.00 | 0.00 | 32 | 1014.8 |
| 20260503193700 | 66 | 298 | 3.0 | 3.0 | 0.00 | 0.00 | 0.00 | 32 | 1015.2 |
| 20260503193155 | 66 | 247 | 3.0 | 3.0 | 0.00 | 0.00 | 0.00 | 31 | 1015.1 |
| 20260503192651 | 68 | 219 | 3.0 | 3.0 | 0.00 | 0.00 | 0.00 | 29 | 1015.3 |
| 20260503192147 | 66 | 266 | 1.0 | 1.0 | 0.00 | 0.00 | 0.00 | 33 | 1015.4 |
| 20260503191644 | 65 | 349 | 2.0 | 2.0 | 0.00 | 0.00 | 0.00 | 34 | 1015.4 |
| 20260503191141 | 66 | 340 | 3.0 | 5.0 | 0.00 | 0.00 | 0.00 | 31 | 1015.4 |
| 20260503190638 | 65 | 296 | 2.0 | 3.0 | 0.00 | 0.00 | 0.00 | 32 | 1015.8 |
| 20260503190134 | 66 | 221 | 1.0 | 1.0 | 0.00 | 0.00 | 0.00 | 35 | 1015.6 |
| 20260503185631 | 65 | 243 | 1.0 | 1.0 | 0.00 | 0.00 | 0.00 | 34 | 1015.7 |
| 20260503185126 | 65 | 235 | 1.0 | 1.0 | 0.00 | 0.00 | 0.00 | 32 | 1016.1 |
| 20260503184622 | 65 | 293 | 2.0 | 2.0 | 0.00 | 0.00 | 0.00 | 35 | 1015.9 |
| 20260503184118 | 64 | 299 | 1.0 | 1.0 | 0.00 | 0.00 | 0.00 | 35 | 1016.0 |
| 20260503183615 | 61 | 347 | 3.0 | 5.0 | 0.00 | 0.00 | 0.00 | 36 | 1016.0 |
| 20260503183112 | 64 | 50 | 6.0 | 9.0 | 0.00 | 0.00 | 0.00 | 34 | 1016.0 |
| 20260503182611 | 65 | 275 | 4.0 | 7.0 | 0.00 | 0.00 | 0.00 | 35 | 1016.3 |
| 20260503182109 | 65 | 307 | 1.0 | 2.0 | 0.00 | 0.00 | 0.00 | 34 | 1016.5 |
| 20260503181605 | 64 | 314 | 1.0 | 2.0 | 0.00 | 0.00 | 0.00 | 35 | 1016.2 |
| 20260503181102 | 63 | 104 | 3.0 | 5.0 | 0.00 | 0.00 | 0.00 | 35 | 1016.4 |
| 20260503180559 | 63 | 338 | 4.0 | 5.0 | 0.00 | 0.00 | 0.00 | 35 | 1016.3 |
| 20260503180056 | 62 | 247 | 1.0 | 1.0 | 0.00 | 0.00 | 0.00 | 39 | 1016.4 |
| 20260503175553 | 62 | 227 | 4.0 | 6.0 | 0.00 | 0.00 | 0.00 | 35 | 1016.3 |
| 20260503175050 | 62 | 234 | 8.0 | 10.0 | 0.00 | 0.00 | 0.00 | 34 | 1016.4 |
| 20260503174547 | 62 | 354 | 1.0 | 2.0 | 0.00 | 0.00 | 0.00 | 35 | 1016.8 |
| 20260503174044 | 62 | 322 | 3.0 | 5.0 | 0.00 | 0.00 | 0.00 | 34 | 1016.7 |
| 20260503173539 | 60 | 258 | 4.0 | 5.0 | 0.00 | 0.00 | 0.00 | 37 | 1016.6 |
| 20260503173035 | 63 | 316 | 3.0 | 5.0 | 0.00 | 0.00 | 0.00 | 35 | 1016.5 |
| 20260503172533 | 62 | 62 | 3.0 | 3.0 | 0.00 | 0.00 | 0.00 | 35 | 1016.8 |
| 20260503172030 | 62 | 162 | 1.0 | 3.0 | 0.00 | 0.00 | 0.00 | 39 | 1016.7 |
| 20260503171526 | 60 | 67 | 4.0 | 5.0 | 0.00 | 0.00 | 0.00 | 38 | 1016.9 |
| 20260503171024 | 62 | 254 | 0.0 | 1.0 | 0.00 | 0.00 | 0.00 | 35 | 1017.1 |
| 20260503170520 | 61 | 264 | 2.0 | 3.0 | 0.00 | 0.00 | 0.00 | 39 | 1017.1 |
| 20260503150913 | 53 | 53 | 1.0 | 1.0 | 0.00 | 0.00 | 0.00 | 44 | 1018.4 |
| 20260503150409 | 54 | 313 | 1.0 | 1.0 | 0.00 | 0.00 | 0.00 | 44 | 1018.7 |
| 20260503131302 | 49 | 354 | 4.0 | 5.0 | 0.00 | 0.00 | 0.00 | 46 | 1018.5 |
| 20260503130800 | 48 | 308 | 6.0 | 8.0 | 0.00 | 0.00 | 0.00 | 45 | 1018.0 |
| 20260503130257 | 48 | 256 | 2.0 | 3.0 | 0.00 | 0.00 | 0.00 | 50 | 1018.2 |
| 20260503110650 | 39 | 10 | 0.0 | 1.0 | 0.00 | 0.00 | 0.00 | 79 | 1017.3 |
| 20260503110148 | 38 | 295 | 0.0 | 1.0 | 0.00 | 0.00 | 0.00 | 79 | 1017.2 |
| 20260503100114 | 42 | 194 | 0.0 | 1.0 | 0.00 | 0.00 | 0.00 | 60 | 1015.7 |
| 20260503081504 | 38 | 289 | 1.0 | 1.0 | 0.00 | 0.00 | 0.00 | 87 | 1015.1 |
| 20260503081001 | 38 | 251 | 0.0 | 0.0 | 0.00 | 0.00 | 0.00 | 87 | 1015.1 |
| 20260503080457 | 39 | 59 | 1.0 | 1.0 | 0.00 | 0.00 | 0.00 | 86 | 1014.9 |
| 20260503072934 | 39 | 239 | 0.0 | 0.0 | 0.00 | 0.00 | 0.00 | 83 | 1014.7 |
| 20260503072431 | 39 | 260 | 0.0 | 0.0 | 0.00 | 0.00 | 0.00 | 82 | 1014.8 |
| 20260503071928 | 39 | 326 | 0.0 | 0.0 | 0.00 | 0.00 | 0.00 | 80 | 1015.0 |
| 20260503071425 | 39 | 346 | 0.0 | 1.0 | 0.00 | 0.00 | 0.00 | 81 | 1014.7 |
| 20260503070921 | 40 | 358 | 0.0 | 0.0 | 0.00 | 0.00 | 0.00 | 79 | 1014.7 |
| 20260503070418 | 40 | 347 | 0.0 | 0.0 | 0.00 | 0.00 | 0.00 | 78 | 1014.6 |